Russellville, AR

1:26 AM CST on November 17, 2019 (GMT -0600)
Russellville Regional

Weather History for KRUE - September, 2019

Change the Weather History Date:

Sunday, September 1, 2019

  Actual Average (WUND) Record (WUND)
Temperature  
Mean Temperature 80 °F -  
Max Temperature 91 °F - - (-1)
Min Temperature 71 °F - - (-1)
Cooling Degree Days 16    
Growing Degree Days 30 (Base 50)    
Moisture  
Dew Point 70 °F    
Average Humidity 77    
Maximum Humidity 96    
Minimum Humidity 50    
Precipitation  
Precipitation 0.00 in - - ()
Sea Level Pressure  
Sea Level Pressure 30.05 in    
Wind  
Wind Speed 2 mph (WNW)    
Max Wind Speed 9 mph    
Max Gust Speed -    
Visibility 9 miles    
Events      
Averages and records for this station are not official NWS values.
T = Trace of Precipitation, MM = Missing Value Source: NWS Daily Summary

Daily Weather History Graph

Daily Weather History Graph

Search for Another Location

Airport or City:

Astronomy

Sep. 01, 2019 Rise Set
Actual Time 6:44 AM CDT 7:39 PM CDT
Civil Twilight 6:18 AM CDT 8:05 PM CDT
Nautical Twilight 5:47 AM CDT 8:36 PM CDT
Astronomical Twilight 5:16 AM CDT 9:07 PM CDT
Moon 9:11 AM CDT (9/1) 9:33 PM CDT (9/1)
Length of Visible Light 13h 46m
Length of Day
12h 54m
Waxing Crescent, 8% of the Moon is Illuminated
Sep 1
Waxing Crescent
Sep 5
First Quarter
Sep 13
Full
Sep 21
Last Quarter
Sep 28
New

Hourly Weather History & Observations

Time (CDT) Temp. Heat Index Dew Point Humidity Pressure Visibility Wind Dir Wind Speed Gust Speed Precip Events Conditions
12:53 AM 73.0 °F - 70.0 °F 90% 30.05 in 10.0 mi Calm Calm - N/A   Clear
1:53 AM 72.0 °F - 70.0 °F 93% 30.05 in 7.0 mi Calm Calm - N/A   Clear
2:53 AM 72.0 °F - 70.0 °F 93% 30.04 in 7.0 mi Calm Calm - N/A   Clear
3:53 AM 71.1 °F - 70.0 °F 96% 30.04 in 6.0 mi South 3.5 mph - N/A   Clear
4:53 AM 71.1 °F - 69.1 °F 93% 30.04 in 6.0 mi Calm Calm - N/A   Clear
6:53 AM 71.1 °F - 69.1 °F 93% 30.07 in 4.0 mi Calm Calm - N/A   Clear
7:53 AM 73.0 °F - 71.1 °F 93% 30.10 in 8.0 mi NW 8.1 mph - N/A   Mostly Cloudy
8:53 AM 75.9 °F - 70.0 °F 82% 30.09 in 10.0 mi Calm Calm - N/A   Scattered Clouds
9:53 AM 81.0 °F 84.4 °F 70.0 °F 69% 30.10 in 10.0 mi East 3.5 mph - N/A   Clear
10:53 AM 82.9 °F 87.5 °F 71.1 °F 67% 30.09 in 10.0 mi SW 3.5 mph - N/A   Clear
11:53 AM 86.0 °F 91.5 °F 71.1 °F 61% 30.09 in 10.0 mi Calm Calm - N/A   Partly Cloudy
12:53 PM 87.1 °F 92.8 °F 71.1 °F 59% 30.07 in 10.0 mi WSW 4.6 mph - N/A   Clear
1:53 PM 89.1 °F 96.0 °F 72.0 °F 57% 30.05 in 10.0 mi Variable 4.6 mph - N/A   Clear
2:53 PM 90.0 °F 95.4 °F 70.0 °F 52% 30.03 in 10.0 mi West 8.1 mph - N/A   Mostly Cloudy
3:53 PM 89.1 °F 92.9 °F 68.0 °F 50% 30.03 in 10.0 mi WNW 4.6 mph - N/A   Partly Cloudy
4:53 PM 89.1 °F 94.1 °F 70.0 °F 53% 30.02 in 10.0 mi ENE 9.2 mph - N/A   Partly Cloudy
5:53 PM 87.1 °F 94.5 °F 73.0 °F 63% 30.00 in 10.0 mi East 4.6 mph - N/A   Mostly Cloudy
6:53 PM 82.0 °F 86.3 °F 71.1 °F 69% 30.01 in 10.0 mi Calm Calm - N/A   Clear
7:53 PM 79.0 °F - 72.0 °F 79% 30.01 in 10.0 mi North 4.6 mph - N/A   Clear
8:53 PM 75.0 °F - 72.0 °F 90% 30.02 in 10.0 mi Calm Calm - N/A   Clear
9:53 PM 75.0 °F - 71.1 °F 87% 30.04 in 10.0 mi Calm Calm - N/A   Clear
10:53 PM 73.0 °F - 70.0 °F 90% 30.04 in 10.0 mi Calm Calm - N/A   Clear
11:53 PM 72.0 °F - 69.1 °F 91% 30.05 in 10.0 mi Calm Calm - N/A   Clear